FW7092 Weather Reports


Display with metric or nautical units.
time (UTC)temp
F
wind
direction
speed
MPH
gust
MPH
rain 1hr
in
rain 24hr
in
rain mn
in
humidity
%
barometer
mb
20210517125509 61 203 0.0 3.0 0.00 0.00 0.00 74 1023.8
20210517125006 61 174 1.0 3.0 0.00 0.00 0.00 74 1023.8
20210517124457 60 203 0.0 3.0 0.00 0.00 0.00 73 1023.8
20210517123944 60 201 0.0 3.0 0.00 0.00 0.00 74 1023.8
20210517123440 59 191 0.0 0.0 0.00 0.00 0.00 76 1023.8
20210517122929 59 198 0.0 3.0 0.00 0.00 0.00 76 1023.8
20210517122420 59 213 0.0 0.0 0.00 0.00 0.00 77 1023.8
20210517121915 58 229 0.0 0.0 0.00 0.00 0.00 78 1023.8
20210517121405 58 195 1.0 3.0 0.00 0.00 0.00 77 1023.8
20210517120857 57 225 0.0 0.0 0.00 0.00 0.00 79 1023.4
20210517120357 57 102 0.0 0.0 0.00 0.00 0.00 79 1023.8
20210517115854 57 226 0.0 3.0 0.00 0.00 0.00 80 1023.8
20210517115348 56 234 0.0 0.0 0.00 0.00 0.00 79 1023.8
20210517114841 56 260 0.0 0.0 0.00 0.00 0.00 79 1023.8
20210517114338 55 240 0.0 0.0 0.00 0.00 0.00 80 1023.4
20210517113830 55 228 0.0 0.0 0.00 0.00 0.00 80 1023.4
20210517113325 55 169 0.0 0.0 0.00 0.00 0.00 79 1023.8
20210517112819 54 229 0.0 0.0 0.00 0.00 0.00 79 1023.8
20210517112217 54 203 0.0 0.0 0.00 0.00 0.00 79 1023.4
20210517111711 54 225 0.0 0.0 0.00 0.00 0.00 80 1023.4
20210517111211 53 208 0.0 0.0 0.00 0.00 0.00 81 1023.4
20210517110414 53 217 0.0 0.0 0.00 0.00 0.00 84 1023.4
20210517105829 53 220 0.0 0.0 0.00 0.00 0.00 84 1023.4
20210517105323 52 218 0.0 0.0 0.00 0.00 0.00 84 1023.1
20210517104821 52 227 0.0 0.0 0.00 0.00 0.00 84 1023.1
20210517104318 53 106 0.0 0.0 0.00 0.00 0.00 83 1023.1
20210517103810 53 106 0.0 0.0 0.00 0.00 0.00 81 1023.4
20210517103306 53 106 0.0 0.0 0.00 0.00 0.00 81 1023.1
20210517102759 53 106 0.0 0.0 0.00 0.00 0.00 81 1023.1
20210517102244 53 106 0.0 0.0 0.00 0.00 0.00 80 1022.8
20210517101740 53 106 0.0 0.0 0.00 0.00 0.00 80 1022.8
20210517101237 53 106 0.0 0.0 0.00 0.00 0.00 80 1022.8
20210517100726 53 106 0.0 0.0 0.00 0.00 0.00 80 1022.8
20210517100224 53 106 0.0 0.0 0.00 0.00 0.00 79 1022.8
20210517095718 53 106 0.0 0.0 0.00 0.00 0.00 79 1022.8
20210517095212 53 106 0.0 0.0 0.00 0.00 0.00 78 1022.8
20210517094707 53 102 0.0 0.0 0.00 0.00 0.00 78 1022.8
20210517094157 54 105 0.0 0.0 0.00 0.00 0.00 78 1022.4
20210517093652 53 110 0.0 3.0 0.00 0.00 0.00 78 1022.4
20210517093138 53 103 0.0 0.0 0.00 0.00 0.00 78 1022.4
20210517092630 53 98 0.0 0.0 0.00 0.00 0.00 78 1022.8
20210517092124 53 98 0.0 3.0 0.00 0.00 0.00 78 1022.8
20210517091610 54 92 0.0 3.0 0.00 0.00 0.00 77 1022.4
20210517091107 54 95 0.0 0.0 0.00 0.00 0.00 77 1022.8
20210517090606 54 87 0.0 0.0 0.00 0.00 0.00 77 1022.8
20210517090104 54 104 0.0 0.0 0.00 0.00 0.00 77 1022.8
20210517085534 53 41 0.0 3.0 0.00 0.00 0.00 78 1022.8
20210517085031 54 102 0.0 0.0 0.00 0.00 0.00 78 1022.4
20210517084528 54 184 0.0 0.0 0.00 0.00 0.00 78 1022.4
20210517084022 54 204 0.0 0.0 0.00 0.00 0.00 78 1022.1
20210517083512 54 113 0.0 0.0 0.00 0.00 0.00 77 1022.1
20210517083007 54 123 0.0 0.0 0.00 0.00 0.00 77 1022.4
20210517082444 54 98 0.0 3.0 0.00 0.00 0.00 77 1022.4
20210517081941 54 123 0.0 0.0 0.00 0.00 0.00 76 1022.1
20210517081436 54 105 0.0 0.0 0.00 0.00 0.00 76 1022.4
20210517080933 54 103 0.0 3.0 0.00 0.00 0.00 76 1022.4
20210517080430 54 84 0.0 0.0 0.00 0.00 0.00 75 1022.4
20210517075925 54 151 0.0 0.0 0.00 0.00 0.00 75 1022.1
20210517075410 54 109 0.0 0.0 0.00 0.00 0.00 77 1022.4
20210517074904 54 106 0.0 0.0 0.00 0.00 0.00 76 1022.4
20210517074355 54 43 0.0 0.0 0.00 0.00 0.00 76 1022.1
20210517073854 54 157 0.0 3.0 0.00 0.00 0.00 76 1022.4
20210517073348 54 231 0.0 0.0 0.00 0.00 0.00 76 1022.4
20210517072843 55 200 0.0 0.0 0.00 0.00 0.00 75 1022.4
20210517072237 55 71 1.0 3.0 0.00 0.00 0.00 74 1022.1
20210517071737 55 121 0.0 3.0 0.00 0.00 0.00 74 1022.8
20210517071233 55 108 0.0 3.0 0.00 0.00 0.00 74 1022.4
20210517070729 55 118 0.0 0.0 0.00 0.00 0.00 74 1022.8
20210517070222 55 129 1.0 3.0 0.00 0.00 0.00 74 1022.4
20210517065719 55 121 0.0 3.0 0.00 0.00 0.00 73 1022.8
20210517065216 55 76 0.0 3.0 0.00 0.00 0.00 74 1022.8
20210517064701 56 104 0.0 3.0 0.00 0.00 0.00 73 1022.4
20210517064156 56 100 0.0 3.0 0.00 0.00 0.00 73 1022.8
20210517063654 56 109 1.0 3.0 0.00 0.00 0.00 73 1022.8
20210517063148 55 103 2.0 3.0 0.00 0.00 0.00 73 1022.8
20210517062639 55 49 1.0 3.0 0.00 0.00 0.00 73 1022.8
20210517062134 56 85 0.0 3.0 0.00 0.00 0.00 73 1022.8
20210517061625 56 100 1.0 3.0 0.00 0.00 0.00 73 1022.8
20210517061121 56 103 1.0 5.0 0.00 0.00 0.00 72 1022.8
20210517060618 56 115 1.0 3.0 0.00 0.00 0.00 72 1022.8
20210517060116 56 115 1.0 3.0 0.00 0.00 0.00 72 1022.8
20210517055613 56 72 2.0 5.0 0.00 0.00 0.00 71 1022.8
20210517055112 56 84 1.0 5.0 0.00 0.00 0.00 70 1022.4
20210517054603 56 107 0.0 3.0 0.00 0.00 0.00 70 1022.8
20210517054102 56 112 1.0 3.0 0.00 0.00 0.00 71 1022.8
20210517053600 56 93 3.0 5.0 0.00 0.00 0.00 71 1022.8
20210517053057 56 99 3.0 5.0 0.00 0.00 0.00 71 1022.8
20210517052554 56 91 1.0 3.0 0.00 0.00 0.00 70 1022.8
20210517052050 56 85 1.0 7.0 0.00 0.00 0.00 70 1022.8
20210517051529 56 123 1.0 3.0 0.00 0.00 0.00 70 1022.8
20210517050950 56 124 0.0 3.0 0.00 0.00 0.00 70 1022.8
20210517045917 57 108 1.0 3.0 0.00 0.00 0.00 70 1022.8
20210517045413 57 146 0.0 3.0 0.00 0.00 0.00 69 1022.8
20210517044907 57 89 2.0 3.0 0.00 0.00 0.00 70 1022.8
20210517044405 57 108 1.0 3.0 0.00 0.00 0.00 70 1022.8
20210517043854 57 112 0.0 3.0 0.00 0.00 0.00 70 1023.1
20210517043354 57 109 0.0 3.0 0.00 0.00 0.00 71 1023.1
20210517042850 57 108 2.0 3.0 0.00 0.00 0.00 71 1023.1
20210517042343 57 136 0.0 3.0 0.00 0.00 0.00 72 1023.1
20210517041842 56 108 1.0 3.0 0.00 0.00 0.00 73 1023.1
20210517041338 56 63 1.0 3.0 0.00 0.00 0.00 75 1022.8
20210517040834 56 102 0.0 0.0 0.00 0.00 0.00 76 1023.1
20210517040308 56 88 0.0 0.0 0.00 0.00 0.00 76 1023.1
20210517035806 56 89 0.0 3.0 0.00 0.00 0.00 77 1023.1
20210517035305 56 72 0.0 0.0 0.00 0.00 0.00 76 1023.1
20210517034755 56 121 0.0 0.0 0.00 0.00 0.00 76 1023.1
20210517034253 56 151 0.0 3.0 0.00 0.00 0.00 75 1023.1
20210517033749 56 115 0.0 3.0 0.00 0.00 0.00 76 1023.1
20210517033245 56 108 0.0 3.0 0.00 0.00 0.00 76 1023.1
20210517032740 56 116 0.0 3.0 0.00 0.00 0.00 77 1023.4
20210517032235 56 69 0.0 3.0 0.00 0.00 0.00 76 1023.1
20210517031731 56 76 0.0 0.0 0.00 0.00 0.00 76 1023.1
20210517031226 56 73 1.0 3.0 0.00 0.00 0.00 76 1022.8
20210517030721 56 50 0.0 3.0 0.00 0.00 0.00 75 1023.1
20210517030211 56 79 0.0 3.0 0.00 0.00 0.00 75 1023.1
20210517025710 57 62 0.0 0.0 0.00 0.00 0.00 75 1023.1
20210517025206 57 63 0.0 3.0 0.00 0.00 0.00 74 1023.1
20210517024701 57 72 0.0 3.0 0.00 0.00 0.00 74 1023.4
20210517024156 57 110 0.0 3.0 0.00 0.00 0.00 73 1023.1
20210517023654 57 96 0.0 0.0 0.00 0.00 0.00 72 1023.1
20210517023151 57 71 0.0 0.0 0.00 0.00 0.00 72 1023.1
20210517022649 57 101 0.0 0.0 0.00 0.00 0.00 72 1022.8
20210517022148 57 8 0.0 3.0 0.00 0.00 0.00 71 1023.1
20210517021643 57 55 0.0 3.0 0.00 0.00 0.00 71 1022.8
20210517021138 58 89 0.0 3.0 0.00 0.00 0.00 70 1022.8
20210517020629 58 75 0.0 3.0 0.00 0.00 0.00 70 1022.8
20210517020112 58 57 1.0 3.0 0.00 0.00 0.00 69 1022.4
20210517015612 58 94 0.0 3.0 0.00 0.00 0.00 68 1022.8
20210517015112 58 54 0.0 3.0 0.00 0.00 0.00 67 1022.8
20210517014610 59 177 0.0 3.0 0.00 0.00 0.00 66 1022.8
20210517014108 59 92 0.0 3.0 0.00 0.00 0.00 66 1022.4
20210517013600 59 25 1.0 3.0 0.00 0.00 0.00 65 1022.1
20210517013055 59 89 1.0 3.0 0.00 0.00 0.00 64 1022.4
20210517012552 60 30 1.0 3.0 0.00 0.00 0.00 62 1022.1
20210517012045 60 59 1.0 3.0 0.00 0.00 0.00 61 1022.8
20210517011540 60 55 2.0 5.0 0.00 0.00 0.00 60 1022.4
20210517011037 60 74 1.0 5.0 0.00 0.00 0.00 63 1022.4
20210517010535 60 139 1.0 3.0 0.00 0.00 0.00 65 1022.4
20210517010033 60 86 1.0 3.0 0.00 0.00 0.00 66 1022.4
20210517005529 60 75 0.0 3.0 0.00 0.00 0.00 67 1022.4
20210517005025 61 101 0.0 3.0 0.00 0.00 0.00 65 1022.1
20210517004521 61 58 0.0 0.0 0.00 0.00 0.00 65 1022.4
20210517004016 61 95 0.0 3.0 0.00 0.00 0.00 64 1022.4
20210517003511 61 178 0.0 3.0 0.00 0.00 0.00 63 1022.4
20210517003010 62 133 0.0 3.0 0.00 0.00 0.00 61 1022.1
20210517002505 62 155 0.0 3.0 0.00 0.00 0.00 60 1022.1
20210517002003 63 88 0.0 3.0 0.00 0.00 0.00 59 1022.1
20210517001457 63 77 0.0 3.0 0.00 0.00 0.00 58 1022.4
20210517000952 63 30 0.0 5.0 0.00 0.00 0.00 58 1022.1
20210517000450 64 76 2.0 5.0 0.00 0.00 0.00 58 1022.1
20210516235944 64 46 0.0 3.0 0.00 0.00 0.00 58 1022.1
20210516235442 64 81 2.0 3.0 0.00 0.00 0.00 57 1022.4
20210516234938 65 77 0.0 3.0 0.00 0.00 0.00 57 1022.1
20210516234434 65 66 1.0 3.0 0.00 0.00 0.00 57 1022.1
20210516233924 65 89 0.0 5.0 0.00 0.00 0.00 56 1022.4
20210516233419 66 113 1.0 3.0 0.00 0.00 0.00 55 1022.1
20210516232915 66 88 2.0 5.0 0.00 0.00 0.00 54 1022.4
20210516232414 66 67 1.0 5.0 0.00 0.00 0.00 54 1022.1
20210516231911 67 104 1.0 5.0 0.00 0.00 0.00 53 1022.4
20210516231408 67 32 1.0 3.0 0.00 0.00 0.00 54 1022.1
20210516230907 67 117 2.0 7.0 0.00 0.00 0.00 53 1022.1
20210516230405 68 90 2.0 5.0 0.00 0.00 0.00 52 1022.1
20210516225900 68 84 4.0 5.0 0.00 0.00 0.00 52 1022.8
20210516225358 68 122 5.0 7.0 0.00 0.00 0.00 51 1022.4
20210516224853 68 72 6.0 7.0 0.00 0.00 0.00 52 1022.4
20210516224350 69 87 2.0 7.0 0.00 0.00 0.00 51 1022.1
20210516223840 69 24 1.0 7.0 0.00 0.00 0.00 51 1022.4
20210516223338 69 58 2.0 5.0 0.00 0.00 0.00 52 1022.8
20210516222834 69 117 3.0 7.0 0.00 0.00 0.00 52 1022.4
20210516222331 69 33 8.0 12.0 0.00 0.00 0.00 52 1022.4
20210516221827 69 52 2.0 7.0 0.00 0.00 0.00 52 1022.4
20210516221325 69 27 3.0 7.0 0.00 0.00 0.00 51 1022.4
20210516220822 70 49 2.0 5.0 0.00 0.00 0.00 50 1022.8
20210516220319 69 73 1.0 5.0 0.00 0.00 0.00 52 1022.4
20210516215816 69 58 5.0 7.0 0.00 0.00 0.00 51 1022.1
20210516215310 70 152 3.0 7.0 0.00 0.00 0.00 51 1022.4
20210516214810 71 107 2.0 3.0 0.00 0.00 0.00 49 1022.4
20210516214301 71 92 0.0 10.0 0.00 0.00 0.00 50 1022.4
20210516213758 72 123 3.0 7.0 0.00 0.00 0.00 47 1022.4
20210516213252 72 168 0.0 3.0 0.00 0.00 0.00 41 1022.4
20210516212745 71 156 0.0 0.0 0.00 0.00 0.00 43 1022.4
20210516212244 71 97 2.0 5.0 0.00 0.00 0.00 40 1022.4
20210516211742 71 110 3.0 3.0 0.00 0.00 0.00 39 1022.4
20210516211235 73 165 1.0 3.0 0.00 0.00 0.00 40 1022.4
20210516210730 72 126 0.0 3.0 0.00 0.00 0.00 39 1022.8
20210516210225 73 67 0.0 3.0 0.00 0.00 0.00 43 1022.4
20210516205720 73 141 0.0 5.0 0.00 0.00 0.00 41 1022.8
20210516205216 72 72 1.0 3.0 0.00 0.00 0.00 42 1022.4
20210516204716 72 340 0.0 3.0 0.00 0.00 0.00 40 1022.8
20210516204212 72 263 2.0 5.0 0.00 0.00 0.00 39 1022.8
20210516203709 71 175 0.0 5.0 0.00 0.00 0.00 43 1022.4
20210516203202 71 193 4.0 5.0 0.00 0.00 0.00 40 1022.8
20210516202658 71 343 0.0 5.0 0.00 0.00 0.00 41 1022.8
20210516202153 72 248 5.0 7.0 0.00 0.00 0.00 40 1022.8
20210516201648 71 271 3.0 5.0 0.00 0.00 0.00 39 1022.8
20210516201144 72 210 7.0 10.0 0.00 0.00 0.00 38 1023.1
20210516200642 73 186 1.0 3.0 0.00 0.00 0.00 45 1022.8
20210516200140 73 111 3.0 5.0 0.00 0.00 0.00 41 1022.8
20210516195637 72 288 0.0 3.0 0.00 0.00 0.00 43 1022.8
20210516195133 71 175 3.0 5.0 0.00 0.00 0.00 45 1022.8
20210516194628 71 226 0.0 3.0 0.00 0.00 0.00 39 1022.8
20210516194127 71 184 0.0 3.0 0.00 0.00 0.00 40 1022.8
20210516193624 71 237 0.0 3.0 0.00 0.00 0.00 43 1022.8
20210516193115 71 174 0.0 3.0 0.00 0.00 0.00 43 1023.4
20210516192610 71 224 0.0 0.0 0.00 0.00 0.00 41 1023.1
20210516192107 70 189 1.0 3.0 0.00 0.00 0.00 41 1022.8
20210516191604 70 220 0.0 3.0 0.00 0.00 0.00 43 1023.1
20210516191058 70 217 0.0 5.0 0.00 0.00 0.00 43 1023.4
20210516190552 70 183 5.0 10.0 0.00 0.00 0.00 40 1023.1
20210516190051 70 210 3.0 7.0 0.00 0.00 0.00 43 1023.4
20210516185545 70 148 4.0 7.0 0.00 0.00 0.00 43 1023.1
20210516185039 70 196 3.0 5.0 0.00 0.00 0.00 41 1023.1
20210516184538 70 157 2.0 3.0 0.00 0.00 0.00 40 1023.1
20210516184033 71 233 7.0 12.0 0.00 0.00 0.00 39 1023.4
20210516183529 71 219 2.0 3.0 0.00 0.00 0.00 42 1023.4
20210516183023 71 225 0.0 3.0 0.00 0.00 0.00 42 1023.4
20210516182521 70 239 1.0 3.0 0.00 0.00 0.00 40 1023.4
20210516182017 70 200 4.0 10.0 0.00 0.00 0.00 39 1023.4
20210516181514 70 144 0.0 3.0 0.00 0.00 0.00 46 1023.4
20210516181013 70 160 2.0 7.0 0.00 0.00 0.00 43 1023.4
20210516180508 70 194 6.0 7.0 0.00 0.00 0.00 42 1023.1
20210516180002 71 222 9.0 12.0 0.00 0.00 0.00 39 1023.4
20210516175500 71 170 5.0 10.0 0.00 0.00 0.00 40 1023.4
20210516174953 72 181 5.0 12.0 0.00 0.00 0.00 41 1023.1
20210516174452 71 153 1.0 3.0 0.00 0.00 0.00 42 1023.4
20210516173949 71 356 0.0 3.0 0.00 0.00 0.00 43 1023.4
20210516173445 71 253 5.0 7.0 0.00 0.00 0.00 42 1023.4
20210516172942 70 78 2.0 3.0 0.00 0.00 0.00 40 1023.8
20210516172436 71 274 0.0 5.0 0.00 0.00 0.00 40 1023.4
20210516171933 71 151 1.0 5.0 0.00 0.00 0.00 46 1023.4
20210516171430 69 215 1.0 5.0 0.00 0.00 0.00 41 1023.8
20210516170924 69 190 0.0 3.0 0.00 0.00 0.00 44 1023.8
20210516170420 71 110 0.0 3.0 0.00 0.00 0.00 43 1023.8
20210516165918 71 237 1.0 5.0 0.00 0.00 0.00 41 1023.8
20210516165416 70 233 6.0 7.0 0.00 0.00 0.00 42 1023.8
20210516164904 70 188 7.0 10.0 0.00 0.00 0.00 42 1023.8
20210516164359 71 204 0.0 5.0 0.00 0.00 0.00 40 1023.8
20210516163858 70 154 0.0 3.0 0.00 0.00 0.00 44 1023.8
20210516163357 71 118 1.0 3.0 0.00 0.00 0.00 46 1023.8
20210516162854 69 208 0.0 7.0 0.00 0.00 0.00 43 1023.8
20210516162352 70 223 0.0 5.0 0.00 0.00 0.00 42 1024.1
20210516161841 70 191 2.0 7.0 0.00 0.00 0.00 44 1024.1
20210516161339 71 173 0.0 3.0 0.00 0.00 0.00 49 1024.5
20210516160838 71 210 4.0 5.0 0.00 0.00 0.00 47 1024.5
20210516160338 70 173 1.0 5.0 0.00 0.00 0.00 46 1024.1
20210516155834 70 173 2.0 3.0 0.00 0.00 0.00 51 1024.5
20210516155333 69 189 1.0 5.0 0.00 0.00 0.00 48 1024.5
20210516154825 69 212 2.0 5.0 0.00 0.00 0.00 49 1024.8
20210516154322 69 159 0.0 3.0 0.00 0.00 0.00 52 1024.5
20210516153818 69 172 0.0 3.0 0.00 0.00 0.00 54 1024.8
20210516153310 67 43 1.0 3.0 0.00 0.00 0.00 53 1024.5
20210516152805 65 204 0.0 3.0 0.00 0.00 0.00 57 1024.8
20210516152305 65 98 3.0 5.0 0.00 0.00 0.00 58 1024.8
20210516151759 64 146 0.0 3.0 0.00 0.00 0.00 58 1024.8
20210516151258 63 112 2.0 3.0 0.00 0.00 0.00 60 1024.8
20210516150754 63 63 1.0 3.0 0.00 0.00 0.00 61 1024.8
20210516150253 62 95 1.0 3.0 0.00 0.00 0.00 62 1024.8
20210516145752 62 138 0.0 0.0 0.00 0.00 0.00 64 1024.8
20210516145248 62 105 0.0 0.0 0.00 0.00 0.00 63 1024.8
20210516144743 62 66 0.0 3.0 0.00 0.00 0.00 63 1024.8
20210516144240 61 88 0.0 3.0 0.00 0.00 0.00 62 1024.8
20210516143736 61 60 0.0 3.0 0.00 0.00 0.00 64 1024.8
20210516143231 61 48 1.0 3.0 0.00 0.00 0.00 65 1025.1
20210516142731 61 107 0.0 0.0 0.00 0.00 0.00 65 1025.1
20210516142225 61 128 0.0 0.0 0.00 0.00 0.00 67 1025.1
20210516141723 60 311 0.0 0.0 0.00 0.00 0.00 67 1024.8
20210516141222 60 304 0.0 0.0 0.00 0.00 0.00 69 1024.8
20210516140714 60 290 0.0 0.0 0.00 0.00 0.00 71 1024.8
20210516140213 60 299 0.0 0.0 0.00 0.00 0.00 73 1024.8
20210516135710 60 67 0.0 0.0 0.00 0.00 0.00 72 1024.8
20210516135208 60 110 0.0 3.0 0.00 0.00 0.00 72 1024.8
20210516134701 60 90 0.0 3.0 0.00 0.00 0.00 72 1024.8
20210516134158 60 62 0.0 3.0 0.00 0.00 0.00 73 1024.8
20210516133656 60 181 0.0 0.0 0.00 0.00 0.00 72 1024.8
20210516133154 60 342 0.0 0.0 0.00 0.00 0.00 75 1024.8
20210516132655 60 327 0.0 0.0 0.00 0.00 0.00 76 1024.8
20210516132148 59 344 0.0 0.0 0.00 0.00 0.00 75 1024.5
20210516131644 60 34 0.0 0.0 0.00 0.00 0.00 74 1024.8
20210516131138 59 78 0.0 0.0 0.00 0.00 0.00 75 1024.8
20210516130638 59 152 0.0 0.0 0.00 0.00 0.00 75 1024.8
20210516130137 59 64 0.0 0.0 0.00 0.00 0.00 75 1024.8